Weather History for Berlin, NH

Change the Weather History Date:

Saturday, December 28, 2013

  Actual Average Record
Temperature  
Mean Temperature 22 °F -  
Max Temperature 37 °F 25 °F 57 °F (2008)
Min Temperature 8 °F 5 °F -9 °F (1997)
Degree Days  
Heating Degree Days 42    
Moisture  
Dew Point 21 °F    
Average Humidity 82    
Maximum Humidity 89    
Minimum Humidity 70    
Precipitation  
Precipitation 0.00 in - - ()
Sea Level Pressure  
Sea Level Pressure 30.00 in    
Wind  
Wind Speed 2 mph (West)    
Max Wind Speed 9 mph    
Max Gust Speed -    
Visibility 10 miles    
Events Snow    
Averages and records for this station are not official NWS values.
T = Trace of Precipitation, MM = Missing Value Source: NWS Daily Summary

Daily Weather History Graph

Daily Weather History Graph

Search for Another Location

Airport:

Trip Planner

Search our weather history database for the weather conditions in past years. The results will help you decide how hot, cold, wet, or windy it might be!

Date:

Astronomy

Dec. 28, 2013 Rise Set
Actual Time 7:20 AM EST 4:12 PM EST
Civil Twilight 6:47 AM EST 4:45 PM EST
Nautical Twilight 6:10 AM EST 5:22 PM EST
Astronomical Twilight 5:35 AM EST 5:57 PM EST
Moon 2:48 AM EST (12/28) 1:05 PM EST (12/28)
Length of Visible Light 9h 57m
Length of Day
8h 51m
Waning Crescent, 19% of the Moon is Illuminated
Dec 28
Waning Crescent
Jan 1
New
Jan 7
First Quarter
Jan 15
Full
Jan 24
Last Quarter

Hourly Weather History & Observations

Time (EST) Temp. Windchill Dew Point Humidity Pressure Visibility Wind Dir Wind Speed Gust Speed Precip Events Conditions
12:52 AM 12.9 °F 6.9 °F 10.0 °F 88% 30.11 in 6.0 mi South 3.5 mph - N/A   Clear
1:52 AM 8.1 °F - 5.0 °F 87% 30.11 in 10.0 mi Calm Calm - N/A   Clear
2:52 AM 9.0 °F - 6.1 °F 88% 30.10 in 10.0 mi Calm Calm - N/A   Clear
3:52 AM 8.1 °F - 5.0 °F 87% 30.07 in 10.0 mi Calm Calm - N/A   Clear
4:52 AM 9.0 °F - 6.1 °F 88% 30.05 in 10.0 mi Calm Calm - N/A   Scattered Clouds
5:52 AM 14.0 °F - 10.0 °F 84% 30.04 in 10.0 mi Calm Calm - N/A   Overcast
6:52 AM 16.0 °F 10.4 °F 12.9 °F 88% 30.01 in 10.0 mi North 3.5 mph - 0.00 in Snow Light Snow
7:52 AM 18.0 °F 12.7 °F 15.1 °F 88% 29.99 in 10.0 mi North 3.5 mph - 0.00 in   Overcast
8:52 AM 19.9 °F - 17.1 °F 89% 29.98 in 9.0 mi Calm Calm - N/A   Mostly Cloudy
9:52 AM 24.1 °F - 21.0 °F 88% 29.97 in 10.0 mi Calm Calm - N/A   Mostly Cloudy
10:52 AM 30.0 °F - 25.0 °F 82% 29.96 in 10.0 mi Calm Calm - N/A   Overcast
11:52 AM 35.1 °F - 26.1 °F 70% 29.94 in 10.0 mi North - - N/A   Overcast
12:52 PM 34.0 °F 31.0 °F 27.0 °F 75% 29.93 in 10.0 mi Variable 3.5 mph - N/A   Overcast
1:52 PM 35.1 °F 27.9 °F 27.0 °F 72% 29.94 in 10.0 mi WSW 9.2 mph - N/A   Overcast
2:52 PM 35.1 °F - 28.0 °F 76% 29.95 in 10.0 mi Calm Calm - N/A   Overcast
3:52 PM 36.0 °F 31.1 °F 28.9 °F 76% 29.97 in 10.0 mi Variable 5.8 mph - N/A   Overcast
4:52 PM 36.0 °F 32.1 °F 28.0 °F 73% 29.97 in 10.0 mi Variable 4.6 mph - N/A   Overcast
5:52 PM 36.0 °F 31.1 °F 28.9 °F 76% 29.98 in 10.0 mi Variable 5.8 mph - N/A   Overcast
6:52 PM 36.0 °F - 28.9 °F 76% 29.99 in 10.0 mi Calm Calm - N/A   Overcast
7:52 PM 35.1 °F 32.2 °F 30.0 °F 82% 30.00 in 10.0 mi Variable 3.5 mph - N/A   Overcast
8:52 PM 36.0 °F 31.1 °F 30.0 °F 79% 30.00 in 10.0 mi West 5.8 mph - N/A   Overcast
9:52 PM 37.0 °F 31.6 °F 30.0 °F 76% 30.01 in 10.0 mi Variable 6.9 mph - N/A   Overcast
10:52 PM 35.1 °F - 30.0 °F 82% 29.98 in 10.0 mi Calm Calm - N/A   Overcast
11:52 PM 34.0 °F - 30.9 °F 89% 29.97 in 10.0 mi Calm Calm - N/A   Overcast